Cloud_Cover
0 0 0 0 0 0 10 0 0 0 0 0 0 0 0 0 0 0 0 0 0 0 0 0 0 0 0 0 0 0 0 0 0 0 0 0 0 0 0 0 0 0 4 80
0 0 0 0 0 1 0 0 0 0 0 0 0 0 0 0 0 0 0 0 0 0 0 0 0 0 0 0 0 0 0 0 0 0 0 0 0 0 0 0 2 5 4 21
0 0 0 0 0 0 0 0 0 0 0 0 0 0 0 0 0 0 0 0 0 0 0 0 0 0 0 0 0 0 0 0 0 0 0 0 0 0 0 0 0 0 9 48
1 0 0 0 0 0 2 0 0 0 0 0 0 0 0 0 0 0 0 0 0 0 0 0 0 0 0 0 0 0 0 0 0 0 0 0 0 0 0 0 0 3 22 37
1 0 0 0 0 7 0 0 0 0 0 0 0 0 0 0 0 0 0 0 0 0 0 0 0 0 0 0 0 0 0 0 0 0 0 0 0 0 0 0 0 0 5 20
0 0 0 0 0 14 0 0 0 0 0 0 0 0 0 0 0 0 0 0 0 0 0 0 0 0 0 0 0 0 0 0 0 0 0 0 0 0 0 0 0 0 0 3
0 0 0 0 0 6 0 0 0 0 0 0 0 0 0 0 0 0 0 0 0 0 0 0 0 0 0 0 0 0 0 0 0 0 0 0 0 0 0 0 0 0 0 0
11 0 1 30 0 2 8 0 0 3 0 2 0 0 0 0 0 0 0 0 0 0 0 0 0 0 0 0 0 0 0 0 0 0 0 0 0 0 0 0 0 0 0 5
100 99 68 100 94 2 80 0 0 0 0 0 0 0 0 0 0 0 0 0 0 0 0 0 0 0 0 0 0 0 0 0 0 0 4 3 4 0 0 0 0 0 5 40
100 92 32 100 98 52 38 0 0 0 0 0 0 10 12 0 0 1 0 0 0 0 0 0 0 0 0 0 0 0 0 0 0 0 84 88 11 17 2 0 3 0 0 0
100 96 98 100 62 76 45 28 0 26 15 1 0 0 0 0 0 0 0 0 0 0 0 0 0 0 0 1 3 0 0 4 6 72 74 92 10 5 34 8 0 0 0 0
97 77 100 100 69 100 100 100 2 0 1 0 0 0 0 0 4 0 0 0 0 0 0 0 0 0 1 0 0 0 0 0 58 6 60 89 6 4 0 5 0 5 3 0
32 100 100 100 91 100 100 52 4 26 1 0 0 0 0 0 5 4 3 0 0 0 0 0 0 0 0 0 2 0 0 1 1 1 1 0 0 0 0 94 19 2 0 5
42 97 97 100 94 79 100 84 9 24 22 2 0 0 0 0 3 65 4 4 0 0 0 0 0 0 0 0 0 0 0 1 3 5 0 0 0 0 0 0 0 0 0 1
9 0 77 100 100 59 42 98 7 3 38 35 4 0 0 0 0 94 48 5 3 0 0 0 0 0 0 0 0 0 0 0 0 0 0 0 13 15 0 12 59 0 0 0
100 60 2 65 100 100 99 96 60 52 5 83 6 0 0 0 0 83 100 12 5 0 0 0 0 0 0 0 0 0 0 0 0 0 0 0 0 0 1 70 47 0 1 1
100 100 8 37 98 100 100 99 70 55 92 90 3 5 0 3 2 10 100 94 99 12 0 0 0 0 0 0 1 1 0 0 0 0 0 0 0 0 0 5 0 17 92 100
5 28 78 78 49 87 100 100 100 99 73 97 13 46 3 2 54 68 47 98 41 52 5 6 38 4 4 40 86 50 4 0 0 0 0 0 0 0 0 2 99 100 100 100
94 100 72 92 12 18 36 100 100 100 85 89 96 44 67 0 5 78 68 52 48 62 54 84 73 64 72 91 100 99 43 0 0 0 0 0 0 0 0 3 19 100 87 92
16 100 96 68 99 41 5 5 100 100 100 100 100 78 38 5 1 79 48 68 89 35 85 94 94 100 100 100 100 71 5 5 5 5 0 2 0 0 5 1 80 99 100 100
25 100 100 64 25 1 4 4 10 100 100 31 90 85 59 7 13 2 10 21 40 100 81 96 100 100 100 100 30 3 5 41 32 5 2 0 1 2 4 5 5 14 96 100
20 98 100 81 37 5 34 48 9 76 100 90 78 56 98 31 6 4 10 22 50 98 100 88 98 100 100 100 78 5 5 7 15 30 53 42 17 6 5 5 5 5 5 9
79 68 100 100 44 99 98 99 99 64 100 100 76 42 94 100 38 35 49 7 18 29 100 97 94 100 100 99 82 49 30 76 99 70 54 90 50 16 10 46 61 39 5 5
100 100 100 100 100 59 99 100 93 74 100 100 100 96 87 100 100 100 100 100 100 100 100 100 100 100 100 100 98 100 100 95 99 76 8 34 92 97 74 89 64 26 22 51
83 100 100 100 100 100 95 89 98 86 100 98 100 100 100 100 100 100 100 100 100 100 100 100 99 76 95 91 100 87 100 100 100 100 100 100 90 5 64 81 63 71 71 29
100 89 100 100 100 97 100 100 100 100 78 63 33 76 100 100 100 100 100 100 100 96 34 71 52 85 64 86 54 12 72 100 100 100 100 100 100 5 5 9 19 76 90 62
94 100 100 99 100 100 100 100 100 100 100 90 62 32 49 50 45 51 100 99 100 99 62 100 91 26 47 91 57 59 73 100 100 100 100 100 82 100 5 5 5 2 1 0